This is the latest recevied weather packets stored in our database for station/object N6GPM. If no packets are shown the sender has not sent any weather packets the latest 10 day(s).
| Time | Temp. | Humidity | Pressure | Rain* | Wind** | Luminosity | Snow |
|---|---|---|---|---|---|---|---|
| 1788023364 | 32.22° C | 35% | 1018.3 hPa | 0 mm | - | 751 W/m² | - |
| 1788023063 | 31.67° C | 37% | 1018.1 hPa | 0 mm | - | 733 W/m² | - |
| 1788022761 | 31.67° C | 36% | 1018.2 hPa | 0 mm | - | 717 W/m² | - |
| 1788022460 | 31.67° C | 36% | 1018.2 hPa | 0 mm | - | 702 W/m² | - |
| 1788022155 | 31.11° C | 38% | 1018.3 hPa | 0 mm | - | 683 W/m² | - |
| 1788021849 | 30.56° C | 39% | 1018.2 hPa | 0 mm | - | 667 W/m² | - |
| 1788021548 | 30.56° C | 40% | 1018.3 hPa | 0 mm | - | 646 W/m² | - |
| 1788021246 | 30.56° C | 39% | 1018.2 hPa | 0 mm | - | 629 W/m² | - |
| 1788020942 | 30.56° C | 39% | 1018 hPa | 0 mm | - | 607 W/m² | - |
| 1788020641 | 30° C | 41% | 1018.2 hPa | 0 mm | - | 578 W/m² | - |
| 1788020338 | 29.44° C | 42% | 1018.1 hPa | 0 mm | - | 561 W/m² | - |
| 1788020034 | 30° C | 42% | 1018.2 hPa | 0 mm | - | 513 W/m² | - |
| 1788019733 | 29.44° C | 42% | 1018 hPa | 0 mm | - | 526 W/m² | - |
| 1788019433 | 29.44° C | 44% | 1018 hPa | 0 mm | - | 218 W/m² | - |
| 1788019130 | 29.44° C | 44% | 1017.9 hPa | 0 mm | - | 488 W/m² | - |
| 1788018825 | 29.44° C | 45% | 1017.9 hPa | 0 mm | - | 541 W/m² | - |
| 1788018521 | 28.89° C | 46% | 1018 hPa | 0 mm | - | 442 W/m² | - |
| 1788018220 | 28.33° C | 47% | 1018.1 hPa | 0 mm | - | 420 W/m² | - |
| 1788017916 | 28.33° C | 48% | 1017.9 hPa | 0 mm | - | 400 W/m² | - |
| 1788017612 | 28.33° C | 48% | 1017.9 hPa | 0 mm | - | 137 W/m² | - |
| 1788017308 | 27.78° C | 49% | 1018.1 hPa | 0 mm | - | 417 W/m² | - |
| 1788017005 | 28.33° C | 51% | 1018 hPa | 0 mm | - | 334 W/m² | - |
| 1788016704 | 27.78° C | 51% | 1017.9 hPa | 0 mm | - | 256 W/m² | - |
| 1788016401 | 27.78° C | 50% | 1017.8 hPa | 0 mm | - | 73 W/m² | - |
| 1788016096 | 27.22° C | 53% | 1017.8 hPa | 0 mm | - | 81 W/m² | - |
* Rain latest hour (hover to see other rain measurements)
** Current wind speed in m/s (hover to see current wind gust speed)